Weather History for Homestead AFB, FL

Change the Weather History Date:

Sunday, June 23, 2013

  Actual Average Record
Temperature  
Mean Temperature 82 °F -  
Max Temperature 88 °F 89 °F 95 °F (1944)
Min Temperature 77 °F 71 °F 65 °F (1956)
Cooling Degree Days 17    
Growing Degree Days 32 (Base 50)    
Moisture  
Dew Point 74 °F    
Average Humidity 76    
Maximum Humidity 89    
Minimum Humidity 59    
Precipitation  
Precipitation 0.00 in - - ()
Sea Level Pressure  
Sea Level Pressure 30.10 in    
Wind  
Wind Speed 8 mph (ESE)    
Max Wind Speed 16 mph    
Max Gust Speed 22 mph    
Visibility 10 miles    
Events Rain , Thunderstorm    
Averages and records for this station are not official NWS values.
T = Trace of Precipitation, MM = Missing Value Source: NWS Daily Summary

Daily Weather History Graph

Daily Weather History Graph

Search for Another Location

Airport:

Trip Planner

Search our weather history database for the weather conditions in past years. The results will help you decide how hot, cold, wet, or windy it might be!

Date:

Astronomy

Jun. 23, 2013 Rise Set
Actual Time 6:31 AM EDT 8:15 PM EDT
Civil Twilight 6:06 AM EDT 8:41 PM EDT
Nautical Twilight 5:34 AM EDT 9:12 PM EDT
Astronomical Twilight 5:02 AM EDT 9:45 PM EDT
Moon 8:34 PM EDT (6/23) 6:41 AM EDT (6/23)
Length of Visible Light 14h 35m
Length of Day
13h 43m
Full, 100% of the Moon is Illuminated
Jun 23
Full
Jun 30
Last Quarter
Jul 8
New
Jul 15
First Quarter
Jul 22
Full

Hourly Weather History & Observations

Time (EDT) Temp. Heat Index Dew Point Humidity Pressure Visibility Wind Dir Wind Speed Gust Speed Precip Events Conditions
12:58 AM 80.4 °F 85.3 °F 74.1 °F 81% 30.10 in 10.0 mi ESE 4.6 mph - N/A   Clear
1:58 AM 81.1 °F 86.6 °F 73.9 °F 79% 30.08 in 10.0 mi SE 5.8 mph - N/A   Clear
2:58 AM 81.1 °F 86.4 °F 73.8 °F 78% 30.07 in 10.0 mi SE 9.2 mph - N/A   Partly Cloudy
3:58 AM 80.8 °F 85.8 °F 73.6 °F 79% 30.07 in 10.0 mi SE 8.1 mph - N/A   Clear
4:58 AM 79.9 °F - 73.8 °F 81% 30.07 in 10.0 mi ESE 5.8 mph - N/A   Partly Cloudy
5:58 AM 80.4 °F 85.1 °F 73.8 °F 80% 30.07 in 10.0 mi SSE 6.9 mph - N/A   Partly Cloudy
6:58 AM 79.5 °F - 73.0 °F 80% 30.08 in 10.0 mi SE 5.8 mph - N/A   Clear
7:58 AM 81.5 °F 87.2 °F 74.1 °F 78% 30.10 in 10.0 mi ESE 4.6 mph - N/A   Clear
8:07 AM 82.4 °F 89.5 °F 75.2 °F 79% 30.09 in 10.0 mi NE 5.8 mph - N/A   Light Drizzle
8:13 AM 82.4 °F 89.5 °F 75.2 °F 79% 30.09 in 10.0 mi South 11.5 mph - N/A   Scattered Clouds
8:18 AM 80.6 °F 85.4 °F 73.4 °F 79% 30.10 in 10.0 mi SSW 10.4 mph - N/A   Scattered Clouds
8:25 AM 78.8 °F - 73.4 °F 83% 30.10 in 10.0 mi SSW 8.1 mph - N/A Rain Light Rain
8:30 AM 78.8 °F - 73.4 °F 83% 30.10 in 10.0 mi South 6.9 mph - N/A Rain Light Rain
8:37 AM 78.8 °F - 73.4 °F 83% 30.09 in 10.0 mi SSW 4.6 mph - N/A   Scattered Clouds
8:58 AM 81.1 °F 87.0 °F 74.7 °F 81% 30.11 in 10.0 mi Variable 3.5 mph - 0.00 in Thunderstorm Partly Cloudy
9:58 AM 86.0 °F 91.5 °F 71.1 °F 61% 30.11 in 10.0 mi East 11.5 mph - N/A   Clear
10:58 AM 86.7 °F 94.1 °F 73.4 °F 64% 30.12 in 10.0 mi ESE 12.7 mph - N/A   Clear
11:28 AM 87.8 °F 95.6 °F 73.4 °F 62% 30.11 in 10.0 mi SE 15.0 mph - N/A   Clear
11:58 AM 87.3 °F 95.3 °F 73.8 °F 64% 30.12 in 10.0 mi SE 11.5 mph 21.9 mph N/A   Partly Cloudy
12:58 PM 87.8 °F 96.1 °F 73.9 °F 63% 30.13 in 10.0 mi ESE 15.0 mph 20.7 mph N/A   Scattered Clouds
1:58 PM 87.8 °F 97.1 °F 74.7 °F 65% 30.12 in 10.0 mi East 13.8 mph - N/A   Mostly Cloudy
2:58 PM 87.8 °F 94.3 °F 71.8 °F 59% 30.10 in 10.0 mi East 13.8 mph - N/A   Clear
3:58 PM 87.1 °F 94.1 °F 72.9 °F 62% 30.09 in 10.0 mi ESE 12.7 mph 20.7 mph N/A   Clear
4:58 PM 86.5 °F 94.2 °F 73.6 °F 65% 30.09 in 10.0 mi East 11.5 mph - N/A   Partly Cloudy
5:58 PM 85.5 °F 92.2 °F 73.0 °F 66% 30.08 in 10.0 mi East 10.4 mph - N/A   Partly Cloudy
6:58 PM 84.2 °F 90.3 °F 72.5 °F 68% 30.08 in 10.0 mi East 6.9 mph - N/A   Clear
7:58 PM 83.1 °F 88.9 °F 73.0 °F 71% 30.09 in 10.0 mi East 10.4 mph - N/A   Clear
8:58 PM 82.6 °F 88.8 °F 73.9 °F 75% 30.10 in 10.0 mi East 10.4 mph - N/A   Partly Cloudy
9:30 PM 82.4 °F 88.2 °F 73.4 °F 74% 30.10 in 8.0 mi SSE 16.1 mph 19.6 mph N/A Rain Light Rain
9:31 PM 82.4 °F 88.2 °F 73.4 °F 74% 30.10 in 8.0 mi SSE 16.1 mph - N/A Rain Light Rain
9:50 PM 77.0 °F - 73.4 °F 89% 30.11 in 10.0 mi SSE 3.5 mph - N/A   Partly Cloudy
9:58 PM 77.2 °F - 73.4 °F 88% 30.11 in 10.0 mi ESE 4.6 mph - 0.00 in   Partly Cloudy
10:29 PM 78.8 °F - 75.2 °F 89% 30.11 in 10.0 mi East 5.8 mph - N/A Rain Light Rain
10:34 PM 78.8 °F - 75.2 °F 89% 30.11 in 9.0 mi ENE 3.5 mph - N/A Rain Light Rain
10:44 PM 78.8 °F - 75.2 °F 89% 30.11 in 10.0 mi ENE 4.6 mph - N/A   Partly Cloudy
10:58 PM 79.7 °F - 74.1 °F 83% 30.13 in 10.0 mi East 8.1 mph - 0.00 in   Scattered Clouds
11:58 PM 81.5 °F 86.3 °F 72.7 °F 74% 30.13 in 10.0 mi East 11.5 mph - N/A   Clear